Location: Unspecified
(44.0704°N, 88.6889°W)
Time: 11:38:54
(UTC+02:00)

Altair - Pass Details

Date: 24 June 2019
Orbit: 1501 x 1683 km, 47.2° (Epoch: 17 July)

Event Time Altitude Azimuth Distance (km) Brightness Sun altitude
Rises 06:02:06 0° 273° (W) 4,749 10.5 -17.6°
Reaches altitude 10° 06:05:09 10° 275° (W) 3,789 10.0 -17.8°
Maximum altitude 06:14:52 74° 1° (N) 1,686 7.8 -18.6°
Drops below altitude 10° 06:24:57 10° 86° (E) 3,921 9.4 -19.3°
Sets 06:28:10 0° 89° (E) 4,922 10.0 -19.5°
